Weather reports worldwide

Advertisment
Jersey Airport, United Kingdom (3895): temperature & dewpoint: 18.11.2020 23:00:00 - 24.11.2020 23:00:00 (GMT)Jersey Airport, United Kingdom (3895): temperature -20cm & temperature -100cm: 18.11.2020 23:00:00 - 24.11.2020 23:00:00 (GMT)Jersey Airport, United Kingdom (3895): wind speed & gusts: 18.11.2020 23:00:00 - 24.11.2020 23:00:00 (GMT)Jersey Airport, United Kingdom (3895): wind direction: 18.11.2020 23:00:00 - 24.11.2020 23:00:00 (GMT)Jersey Airport, United Kingdom (3895): reduced air pressure: 18.11.2020 23:00:00 - 24.11.2020 23:00:00 (GMT)Jersey Airport, United Kingdom (3895): visibility: 18.11.2020 23:00:00 - 24.11.2020 23:00:00 (GMT)Jersey Airport, United Kingdom (3895): sunshine duration: 18.11.2020 23:00:00 - 24.11.2020 23:00:00 (GMT)Jersey Airport, United Kingdom (3895): precipitation: 18.11.2020 23:00:00 - 24.11.2020 23:00:00 (GMT)
Date & Time tt [°C] td [°C] tt -20cm [°C] tt -100cm [°C] ff [km/h] ff [kn] fx [km/h] fx [kn] dd ppp [hPa] vv [km] sd [min] rr [mm]
24.11.2020 23:00:00 10,0 8,5 - - 26 14 - - S 1011,6 10 0 0,0
24.11.2020 22:00:00 10,3 8,6 - - 28 15 - - S 1012,1 20 0 0,0
24.11.2020 21:00:00 10,4 8,7 - - 29 16 - - S 1012,3 10 0 0,0
24.11.2020 20:00:00 10,7 8,8 - - 34 18 - - SSE 1012,5 24 0 0,0
24.11.2020 19:00:00 10,7 8,7 - - 28 15 - - S 1012,9 10 0 0,0
24.11.2020 18:00:00 10,5 8,0 - - 26 14 - - SSE 1013,1 10 0 0,0
24.11.2020 17:00:00 10,7 7,9 - - 24 13 - - S 1013,5 10 0 0,0
24.11.2020 16:00:00 10,5 7,2 - - 28 15 - - S 1013,8 10 0 0,0
24.11.2020 15:00:00 10,1 6,6 - - 28 15 - - SSE 1014,4 45 6 0,0
24.11.2020 14:00:00 10,2 6,2 - - 29 16 - - SSE 1015,3 10 36 0,0
24.11.2020 13:00:00 11,0 6,2 - - 28 15 - - SSE 1016,3 30 60 0,0
24.11.2020 12:00:00 11,0 7,1 - - 22 12 - - SSE 1017,2 40 54 0,0
24.11.2020 11:00:00 9,8 7,0 - - 29 16 - - SSE 1018,4 10 30 0,0
24.11.2020 10:00:00 9,4 7,4 - - 35 19 - - SSE 1019,2 10 12 0,0
24.11.2020 09:00:00 9,3 7,4 12,0 12,2 31 17 - - S 1019,6 10 6 0,0
24.11.2020 08:00:00 8,6 6,9 - - 31 17 - - SSE 1019,9 10 0 0,0
24.11.2020 07:00:00 8,7 6,9 - - 29 16 - - S 1020,2 10 0 0,0
24.11.2020 06:00:00 8,8 6,6 - - 31 17 - - S 1020,7 10 0 0,0
24.11.2020 05:00:00 8,9 7,0 - - 28 15 - - S 1021,3 30 0 0,0
24.11.2020 04:00:00 8,8 7,2 - - 24 13 - - SSE 1022,0 35 0 0,0
24.11.2020 03:00:00 9,2 7,1 - - 24 13 - - SSE 1023,0 10 0 0,0
24.11.2020 02:00:00 9,9 7,3 - - 24 13 - - S 1023,7 10 0 0,0
24.11.2020 01:00:00 10,3 7,4 - - 22 12 - - S 1024,6 35 0 0,0
24.11.2020 00:00:00 10,6 7,3 - - 21 11 - - S 1025,2 10 - 0,0
23.11.2020 23:00:00 11,0 7,6 - - 21 11 - - S 1025,8 10 0 0,0
23.11.2020 22:00:00 10,4 7,4 - - 21 11 - - SSW 1026,3 10 0 0,0
23.11.2020 21:00:00 10,4 8,4 - - 18 10 - - SSW 1026,6 10 0 0,0
23.11.2020 20:00:00 10,4 8,8 - - 13 7 - - SSW 1026,8 10 0 0,0
23.11.2020 19:00:00 10,9 9,5 - - 15 8 - - SSW 1027,0 50 0 0,0
23.11.2020 18:00:00 11,1 9,9 - - 13 7 - - SW 1027,3 10 0 0,0
23.11.2020 17:00:00 11,1 10,7 - - 9 5 - - SW 1027,4 10 0 0,0
23.11.2020 16:00:00 10,6 10,3 - - 9 5 - - SSW 1027,4 35 6 0,0
23.11.2020 15:00:00 10,7 10,4 - - 15 8 - - WSW 1027,6 6 0 0,6
23.11.2020 14:00:00 11,1 10,8 - - 18 10 - - SW 1027,9 8 0 0,0
23.11.2020 13:00:00 11,3 10,8 - - 13 7 - - SW 1028,3 10 0 0,0
23.11.2020 12:00:00 11,3 10,9 - - 9 5 - - SW 1028,7 10 0 0,2
23.11.2020 11:00:00 11,0 10,5 - - 9 5 - - SE 1029,2 10 0 0,0
23.11.2020 10:00:00 10,5 10,2 - - 11 6 - - SE 1029,1 10 0 0,0
23.11.2020 09:00:00 9,4 9,2 12,2 12,4 8 4 - - SE 1028,9 10 0 0,0
23.11.2020 08:00:00 8,8 8,5 - - 5 3 - - E 1028,4 10 0 0,0
23.11.2020 07:00:00 8,3 7,6 - - 8 4 - - ENE 1028,5 0,6 0 0,0
23.11.2020 06:00:00 9,8 9,2 - - 9 5 - - NNE 1028,2 10 0 0,0
23.11.2020 05:00:00 10,3 9,7 - - 9 5 - - NNE 1028,0 10 0 0,0
23.11.2020 04:00:00 9,8 9,0 - - 5 3 - - NNW 1027,9 10 0 0,0
23.11.2020 03:00:00 10,8 10,2 - - 13 7 - - WNW 1027,8 30 0 0,0
23.11.2020 02:00:00 11,6 10,9 - - 15 8 - - W 1027,8 10 0 0,0
23.11.2020 01:00:00 11,3 10,9 - - 16 9 - - W 1028,0 10 0 0,6
23.11.2020 00:00:00 11,4 11,0 - - 22 12 - - WSW 1028,1 2,9 - 1,0
22.11.2020 23:00:00 11,8 11,1 - - 21 11 - - W 1028,0 10 0 0,0
22.11.2020 22:00:00 12,0 10,8 - - 16 9 - - W 1028,2 15 0 0,0
22.11.2020 21:00:00 11,6 10,6 - - 18 10 - - W 1028,2 10 0 0,0
22.11.2020 20:00:00 11,7 10,4 - - 22 12 - - WSW 1028,3 10 0 0,0
22.11.2020 19:00:00 11,5 10,3 - - 21 11 - - WSW 1028,2 10 0 0,0
22.11.2020 18:00:00 11,6 10,3 - - 21 11 - - W 1028,0 17 0 0,0
22.11.2020 17:00:00 11,7 10,0 - - 21 11 - - WSW 1027,7 10 0 0,0
22.11.2020 16:00:00 11,7 10,2 - - 21 11 - - W 1027,7 10 0 0,0
22.11.2020 15:00:00 11,6 10,5 - - 22 12 - - WSW 1027,7 10 0 0,0
22.11.2020 14:00:00 11,9 10,3 - - 24 13 - - WSW 1028,0 10 0 0,0
22.11.2020 13:00:00 12,1 10,7 - - 21 11 - - WSW 1028,2 10 0 0,0
22.11.2020 12:00:00 11,8 10,4 - - 21 11 - - WSW 1028,4 10 0 0,0
22.11.2020 11:00:00 12,2 10,5 - - 18 10 - - WSW 1028,7 25 0 0,0
22.11.2020 10:00:00 12,1 10,6 - - 18 10 - - WSW 1028,6 10 0 0,0
22.11.2020 09:00:00 11,7 10,1 12,2 12,4 13 7 - - WSW 1028,3 12 0 0,0
22.11.2020 08:00:00 11,5 9,7 - - 16 9 - - WSW 1028,5 10 0 0,0
22.11.2020 07:00:00 11,3 9,7 - - 21 11 - - WSW 1028,5 10 0 0,0
22.11.2020 06:00:00 11,4 9,4 - - 16 9 - - SW 1028,3 10 0 0,0
22.11.2020 05:00:00 11,6 9,0 - - 24 13 - - WSW 1028,2 10 0 0,0
22.11.2020 04:00:00 11,5 8,8 - - 21 11 - - WSW 1028,2 10 0 0,0
22.11.2020 03:00:00 11,4 9,1 - - 21 11 - - SW 1028,6 10 0 0,0
22.11.2020 02:00:00 11,3 8,9 - - 21 11 - - SW 1028,4 10 0 0,0
22.11.2020 01:00:00 11,3 8,9 - - 22 12 - - SW 1028,5 20 0 0,0
22.11.2020 00:00:00 11,5 8,9 - - 24 13 - - WSW 1028,9 10 - 0,0
21.11.2020 23:00:00 11,4 8,8 - - 22 12 - - WSW 1029,1 10 0 0,0
21.11.2020 22:00:00 11,5 8,6 - - 24 13 - - WSW 1029,1 10 0 0,0
21.11.2020 21:00:00 11,6 8,9 - - 21 11 - - SW 1029,4 10 0 0,0
21.11.2020 20:00:00 11,7 8,5 - - 21 11 - - WSW 1029,5 10 0 0,0
21.11.2020 19:00:00 11,9 8,5 - - 18 10 - - WSW 1029,8 10 0 0,0
21.11.2020 18:00:00 11,6 9,2 - - 16 9 - - SSW 1029,8 10 0 0,0
21.11.2020 17:00:00 11,0 8,4 - - 15 8 - - SW 1029,8 28 0 0,0
21.11.2020 16:00:00 11,4 8,9 - - 18 10 - - SSW 1029,8 28 0 0,0
21.11.2020 15:00:00 11,4 8,6 - - 18 10 - - SSW 1030,0 10 0 0,0
21.11.2020 14:00:00 11,4 8,3 - - 22 12 - - SW 1030,4 10 0 0,0
21.11.2020 13:00:00 11,7 8,5 - - 24 13 - - SW 1030,6 40 0 0,0
21.11.2020 12:00:00 11,9 8,8 - - 28 15 - - SW 1031,1 35 0 0,0
21.11.2020 11:00:00 11,8 8,9 - - 24 13 - - SW 1031,6 10 0 0,0
21.11.2020 10:00:00 11,5 8,7 - - 24 13 - - SW 1031,6 10 0 0,0
21.11.2020 09:00:00 11,0 8,4 12,0 12,5 24 13 - - SW 1031,6 10 0 0,0
21.11.2020 08:00:00 10,5 8,4 - - 28 15 - - SW 1031,7 45 0 0,0
21.11.2020 07:00:00 10,9 8,2 - - 28 15 - - SW 1031,9 10 0 0,0
21.11.2020 06:00:00 10,7 7,9 - - 26 14 - - SW 1031,9 10 0 0,0
21.11.2020 05:00:00 10,7 8,1 - - 24 13 - - SW 1031,9 10 0 0,0
21.11.2020 04:00:00 10,9 8,5 - - 26 14 - - SSW 1031,9 10 0 0,0
21.11.2020 03:00:00 10,8 8,6 - - 24 13 - - SW 1032,1 40 0 0,0
21.11.2020 02:00:00 10,8 7,9 - - 26 14 - - SW 1032,3 10 0 0,0
21.11.2020 01:00:00 11,0 7,7 - - 26 14 - - SW 1032,6 10 0 0,0
21.11.2020 00:00:00 10,7 7,1 - - 26 14 - - SW 1032,9 10 - 0,0
20.11.2020 23:00:00 10,8 8,1 - - 22 12 - - SW 1033,5 10 0 0,0
20.11.2020 22:00:00 10,9 8,8 - - 22 12 - - SW 1033,6 10 0 0,0
20.11.2020 21:00:00 11,0 8,6 - - 22 12 - - SW 1034,0 10 0 0,0
20.11.2020 20:00:00 10,9 8,5 - - 22 12 - - WSW 1034,3 30 0 0,0
20.11.2020 19:00:00 10,1 9,0 - - 21 11 - - SW 1034,4 10 0 0,0
20.11.2020 18:00:00 10,5 7,9 - - 21 11 - - SW 1034,5 10 0 0,0
20.11.2020 17:00:00 10,0 7,9 - - 18 10 - - SW 1034,5 7 0 0,0
20.11.2020 16:00:00 10,2 8,4 - - 18 10 - - WSW 1034,5 45 0 0,0
20.11.2020 15:00:00 10,7 8,7 - - 21 11 - - WSW 1034,7 10 0 0,0
20.11.2020 14:00:00 10,4 8,6 - - 22 12 - - WSW 1035,3 10 0 0,0
20.11.2020 13:00:00 10,3 8,1 - - 22 12 - - WSW 1035,8 10 0 0,2
20.11.2020 12:00:00 10,0 7,8 - - 16 9 - - WSW 1036,4 20 0 0,0
20.11.2020 11:00:00 11,0 8,2 - - 16 9 - - WSW 1036,5 10 0 0,0
20.11.2020 10:00:00 10,3 7,3 - - 8 4 - - SW 1036,4 10 0 0,0
20.11.2020 09:00:00 9,1 6,4 12,0 12,7 8 4 - - WSW 1036,6 10 0 0,0
20.11.2020 08:00:00 7,2 4,3 - - 5 3 - - W 1036,9 19 0 0,0
20.11.2020 07:00:00 7,6 4,1 - - 9 5 - - NW 1036,6 30 0 0,0
20.11.2020 06:00:00 7,1 4,0 - - 5 3 - - NNW 1036,5 10 0 0,0
20.11.2020 05:00:00 6,7 3,7 - - 8 4 - - NNW 1036,6 10 0 0,0
20.11.2020 04:00:00 6,4 3,1 - - 8 4 - - NW 1036,7 10 0 0,0
20.11.2020 03:00:00 7,2 3,6 - - 9 5 - - NW 1037,3 10 0 0,0
20.11.2020 02:00:00 7,0 3,2 - - 8 4 - - NW 1037,3 10 0 0,0
20.11.2020 01:00:00 7,3 2,9 - - 13 7 - - NNW 1037,8 40 0 0,0
20.11.2020 00:00:00 7,8 2,5 - - 9 5 - - NW 1038,0 10 - 0,0
19.11.2020 23:00:00 7,8 2,5 - - 16 9 - - NNW 1037,7 45 0 0,0
19.11.2020 22:00:00 7,8 3,3 - - 11 6 - - NW 1037,0 10 0 0,0
19.11.2020 21:00:00 8,3 3,3 - - 16 9 - - NW 1036,9 30 0 0,0
19.11.2020 20:00:00 8,3 2,8 - - 15 8 - - NW 1036,6 10 0 0,0
19.11.2020 19:00:00 8,6 2,7 - - 13 7 - - NW 1036,0 10 0 0,0
19.11.2020 18:00:00 9,1 3,2 - - 22 12 - - NW 1036,1 35 0 0,0
19.11.2020 17:00:00 9,5 3,9 - - 26 14 - - NW 1035,5 23 0 0,0
19.11.2020 16:00:00 9,8 3,4 - - 26 14 - - NW 1034,8 35 30 0,0
19.11.2020 15:00:00 10,6 4,0 - - 24 13 50 27 NW 1033,7 10 48 0,0
19.11.2020 14:00:00 10,6 3,8 - - 28 15 48 26 NW 1033,5 10 36 0,0
19.11.2020 13:00:00 11,1 5,0 - - 29 16 57 31 NW 1033,5 10 12 0,0
19.11.2020 12:00:00 10,7 4,3 - - 31 17 61 33 WNW 1032,9 10 24 0,0
19.11.2020 11:00:00 11,3 5,0 - - 35 19 61 33 NW 1032,0 14 18 0,0
19.11.2020 10:00:00 10,7 3,5 - - 34 18 61 33 WNW 1031,2 10 36 0,0
19.11.2020 09:00:00 10,8 3,6 12,7 12,7 39 21 59 32 WNW 1029,9 10 18 0,0
19.11.2020 08:00:00 11,0 5,2 - - 39 21 65 35 WNW 1029,1 10 0 0,0
19.11.2020 07:00:00 10,9 2,7 - - 34 18 55 30 WNW 1027,9 10 0 0,0
19.11.2020 06:00:00 10,9 4,4 - - 39 21 63 34 WNW 1027,3 10 0 0,0
19.11.2020 05:00:00 10,9 6,3 - - 44 24 67 36 W 1026,8 17 0 0,0
19.11.2020 04:00:00 11,2 5,7 - - 41 22 63 34 W 1026,3 10 0 0,0
19.11.2020 03:00:00 10,8 4,6 - - 41 22 59 32 W 1025,9 10 0 0,0
19.11.2020 02:00:00 10,7 5,8 - - 37 20 59 32 WNW 1025,3 16 0 0,0
19.11.2020 01:00:00 10,7 4,8 - - 41 22 59 32 WNW 1025,1 16 0 0,0
19.11.2020 00:00:00 10,7 4,4 - - 35 19 59 32 W 1024,9 10 - 0,0
18.11.2020 23:00:00 10,8 4,2 - - 39 21 52 28 W 1024,3 19 0 0,0

tt = temperature
td = dewpoint
tt -20cm = temperature -20cm
tt -100cm = temperature -100cm
ff = wind speed
fx = gusts
dd = wind direction
ppp = reduced air pressure
vv = visibility
sd = sunshine duration
rr = precipitation

Next stations